When you browse on this site, cookies collect data to enhance your experience and personalize the content and advertising you see.
Visit our Privacy Policy to learn more. By continuing to use the site, you agree to this use of cookies and data.
  • In Switzerland
  • List of Countries
  • For 7 days
  • Water Temperature
  • Satellite Maps
  • Weather Map
  • Weather Widgets
  • user-avatar
    Login

    Hourly Weather Naryn

    Today, 21 January, Monday

    Time Temperature Precipitation Wind Pressure Humidity
    00:00 -16°C° 0 mm 4 mps 561 mmHg 67%
    01:00 -15°C° 0 mm 3 mps 561 mmHg 66%
    02:00 -15°C° 0 mm 3 mps 561 mmHg 66%
    03:00 -15°C° 0 mm 3 mps 561 mmHg 66%
    04:00 -15°C° 0 mm 3 mps 560 mmHg 65%
    05:00 -15°C° 0 mm 2 mps 560 mmHg 62%
    06:00 -16°C° 0 mm 2 mps 560 mmHg 62%
    07:00 -16°C° 0 mm 2 mps 560 mmHg 63%
    08:00 -16°C° 0 mm 2 mps 560 mmHg 64%
    09:00 -14°C° 0 mm 2 mps 561 mmHg 66%
    10:00 -11°C° 0 mm 1 mps 562 mmHg 68%
    11:00 -9°C° 0 mm 1 mps 563 mmHg 70%
    12:00 -8°C° 0 mm 1 mps 563 mmHg 72%
    13:00 -8°C° 0 mm 1 mps 563 mmHg 74%
    14:00 -8°C° 0 mm 1 mps 563 mmHg 76%
    15:00 -10°C° 0 mm 1 mps 562 mmHg 76%
    16:00 -12°C° 0 mm 1 mps 561 mmHg 77%
    17:00 -15°C° 0 mm 2 mps 561 mmHg 75%
    18:00 -15°C° 0 mm 2 mps 561 mmHg 76%
    19:00 -16°C° 0 mm 2 mps 561 mmHg 76%
    20:00 -16°C° 0 mm 2 mps 561 mmHg 76%
    21:00 -17°C° 0 mm 2 mps 561 mmHg 76%
    22:00 -17°C° 0 mm 2 mps 561 mmHg 75%
    23:00 -17°C° 0 mm 2 mps 560 mmHg 75%

    Tomorrow, 22 January, Tuesday

    Time Temperature Precipitation Wind Pressure Humidity
    00:00 -18°C° 0 mm 3 mps 560 mmHg 73%
    01:00 -18°C° 0 mm 3 mps 560 mmHg 71%
    02:00 -18°C° 0 mm 3 mps 560 mmHg 68%
    03:00 -18°C° 0 mm 3 mps 559 mmHg 65%
    04:00 -18°C° 0 mm 3 mps 559 mmHg 61%
    05:00 -17°C° 0 mm 3 mps 559 mmHg 57%
    06:00 -17°C° 0 mm 3 mps 559 mmHg 57%
    07:00 -17°C° 0 mm 3 mps 560 mmHg 56%
    08:00 -16°C° 0 mm 3 mps 560 mmHg 55%
    09:00 -13°C° 0 mm 2 mps 560 mmHg 59%
    10:00 -10°C° 0 mm 2 mps 561 mmHg 64%
    11:00 -9°C° 0 mm 2 mps 561 mmHg 68%
    12:00 -7°C° 0 mm 1 mps 561 mmHg 69%
    13:00 -6°C° 0 mm 1 mps 561 mmHg 69%
    14:00 -4°C° 0 mm 1 mps 561 mmHg 70%
    15:00 -7°C° 0 mm 1 mps 560 mmHg 68%
    16:00 -8°C° 0 mm 1 mps 560 mmHg 66%
    17:00 -10°C° 0 mm 1 mps 559 mmHg 64%
    18:00 -12°C° 0 mm 2 mps 560 mmHg 64%
    19:00 -13°C° 0 mm 2 mps 560 mmHg 65%
    20:00 -14°C° 0 mm 3 mps 560 mmHg 65%
    21:00 -14°C° 0 mm 3 mps 559 mmHg 65%
    22:00 -15°C° 0 mm 3 mps 559 mmHg 66%
    23:00 -14°C° 0 mm 2 mps 559 mmHg 66%

    Day after tomorrow, 23 January, Wednesday

    Time Temperature Precipitation Wind Pressure Humidity
    00:00 -15°C° 0 mm 2 mps 559 mmHg 66%
    01:00 -15°C° 0 mm 2 mps 558 mmHg 67%
    02:00 -17°C° 0 mm 3 mps 558 mmHg 67%
    03:00 -16°C° 0 mm 2 mps 558 mmHg 67%
    04:00 -16°C° 0 mm 2 mps 558 mmHg 67%
    05:00 -16°C° 0 mm 2 mps 558 mmHg 67%
    06:00 -16°C° 0 mm 2 mps 558 mmHg 67%
    07:00 -16°C° 0 mm 2 mps 558 mmHg 68%
    08:00 -16°C° 0 mm 2 mps 558 mmHg 68%
    09:00 -15°C° 0 mm 2 mps 559 mmHg 69%
    10:00 -11°C° 0 mm 1 mps 560 mmHg 71%
    11:00 -9°C° 0 mm 1 mps 561 mmHg 72%
    12:00 -9°C° 0 mm 1 mps 560 mmHg 73%
    13:00 -8°C° 0 mm 0 mps 560 mmHg 74%
    14:00 -8°C° 0 mm 0 mps 560 mmHg 75%
    15:00 -10°C° 0 mm 1 mps 560 mmHg 75%
    16:00 -11°C° 0 mm 1 mps 559 mmHg 76%
    17:00 -13°C° 0 mm 1 mps 559 mmHg 76%
    18:00 -13°C° 0 mm 1 mps 559 mmHg 75%
    19:00 -15°C° 0 mm 2 mps 560 mmHg 75%
    20:00 -16°C° 0 mm 2 mps 560 mmHg 74%
    21:00 -16°C° 0 mm 2 mps 560 mmHg 74%
    22:00 -16°C° 0 mm 2 mps 560 mmHg 74%
    23:00 -16°C° 0 mm 2 mps 560 mmHg 74%

    24 January, Thursday

    Time Temperature Precipitation Wind Pressure Humidity
    00:00 -16°C° 0 mm 2 mps 560 mmHg 74%
    01:00 -16°C° 0 mm 2 mps 561 mmHg 74%
    02:00 -16°C° 0 mm 2 mps 561 mmHg 74%
    03:00 -17°C° 0 mm 2 mps 561 mmHg 75%
    04:00 -17°C° 0 mm 2 mps 561 mmHg 75%
    05:00 -17°C° 0 mm 2 mps 561 mmHg 75%
    06:00 -17°C° 0 mm 2 mps 561 mmHg 75%
    07:00 -17°C° 0 mm 2 mps 562 mmHg 75%
    08:00 -17°C° 0 mm 2 mps 562 mmHg 75%
    09:00 -14°C° 0 mm 1 mps 563 mmHg 75%
    10:00 -12°C° 0 mm 1 mps 564 mmHg 75%
    11:00 -11°C° 0 mm 0 mps 564 mmHg 76%
    12:00 -11°C° 0 mm 1 mps 564 mmHg 77%
    13:00 -10°C° 0 mm 1 mps 564 mmHg 78%
    14:00 -10°C° 0 mm 1 mps 564 mmHg 79%
    15:00 -12°C° 0 mm 1 mps 564 mmHg 79%
    16:00 -14°C° 0 mm 1 mps 563 mmHg 80%
    17:00 -15°C° 0 mm 1 mps 563 mmHg 80%
    18:00 -16°C° 0 mm 1 mps 563 mmHg 79%
    19:00 -18°C° 0 mm 2 mps 564 mmHg 78%
    20:00 -18°C° 0 mm 2 mps 564 mmHg 77%
    21:00 -19°C° 0 mm 2 mps 564 mmHg 77%
    22:00 -19°C° 0 mm 2 mps 564 mmHg 76%
    23:00 -19°C° 0 mm 2 mps 564 mmHg 76%

    25 January, Friday

    Time Temperature Precipitation Wind Pressure Humidity
    00:00 -19°C° 0 mm 2 mps 564 mmHg 76%
    01:00 -20°C° 0 mm 2 mps 564 mmHg 76%
    02:00 -20°C° 0 mm 2 mps 564 mmHg 76%
    03:00 -20°C° 0 mm 2 mps 564 mmHg 76%
    04:00 -20°C° 0 mm 2 mps 564 mmHg 76%
    05:00 -21°C° 0 mm 2 mps 564 mmHg 76%
    06:00 -23°C° 0 mm 3 mps 564 mmHg 75%
    07:00 -22°C° 0 mm 3 mps 565 mmHg 75%
    08:00 -22°C° 0 mm 3 mps 565 mmHg 75%
    09:00 -18°C° 0 mm 2 mps 565 mmHg 75%
    10:00 -16°C° 0 mm 2 mps 566 mmHg 75%
    11:00 -12°C° 0 mm 1 mps 566 mmHg 75%
    12:00 -12°C° 0 mm 1 mps 566 mmHg 75%
    13:00 -11°C° 0 mm 1 mps 566 mmHg 74%
    14:00 -11°C° 0 mm 0 mps 565 mmHg 74%
    15:00 -12°C° 0 mm 1 mps 565 mmHg 72%
    16:00 -16°C° 0 mm 2 mps 564 mmHg 69%
    17:00 -17°C° 0 mm 2 mps 563 mmHg 67%
    18:00 -18°C° 0 mm 2 mps 564 mmHg 62%
    19:00 -19°C° 0 mm 3 mps 564 mmHg 57%
    20:00 -21°C° 0 mm 3 mps 564 mmHg 52%
    21:00 -21°C° 0 mm 3 mps 564 mmHg 53%
    22:00 -21°C° 0 mm 3 mps 564 mmHg 54%
    23:00 -23°C° 0 mm 4 mps 564 mmHg 54%

    26 January, Saturday

    Time Temperature Precipitation Wind Pressure Humidity
    00:00 -23°C° 0 mm 4 mps 563 mmHg 56%
    01:00 -23°C° 0 mm 4 mps 563 mmHg 58%
    02:00 -23°C° 0 mm 4 mps 563 mmHg 60%
    03:00 -22°C° 0 mm 3 mps 563 mmHg 59%
    04:00 -22°C° 0 mm 3 mps 563 mmHg 58%
    05:00 -22°C° 0 mm 3 mps 562 mmHg 58%
    06:00 -22°C° 0 mm 3 mps 563 mmHg 57%
    07:00 -22°C° 0 mm 3 mps 563 mmHg 56%
    08:00 -22°C° 0 mm 3 mps 563 mmHg 55%
    09:00 -19°C° 0 mm 3 mps 564 mmHg 59%
    10:00 -16°C° 0 mm 2 mps 565 mmHg 64%
    11:00 -14°C° 0 mm 2 mps 566 mmHg 68%
    12:00 -11°C° 0 mm 1 mps 565 mmHg 68%
    13:00 -10°C° 0 mm 1 mps 565 mmHg 68%
    14:00 -10°C° 0 mm 0 mps 565 mmHg 68%
    15:00 -11°C° 0 mm 1 mps 564 mmHg 67%
    16:00 -13°C° 0 mm 1 mps 564 mmHg 66%
    17:00 -17°C° 0 mm 2 mps 563 mmHg 65%
    18:00 -17°C° 0 mm 2 mps 563 mmHg 63%
    19:00 -19°C° 0 mm 3 mps 564 mmHg 61%
    20:00 -21°C° 0 mm 3 mps 564 mmHg 60%
    21:00 -21°C° 0 mm 3 mps 564 mmHg 59%
    22:00 -21°C° 0 mm 3 mps 564 mmHg 58%
    23:00 -22°C° 0 mm 3 mps 563 mmHg 58%
    Show more